Weather in Lvovskoye

Russia / Kaliningrad Oblast     54°24′10″N   21°57′12″E
temp.,
°C
wind,
m/s
gust,
m/s
humid.,
%
clouds,
%
prec.,
mm/h
press.,
hPa
HPBL,
m
26 october, tue
tue2623:00+6s51367100 0.0 1020310
02:00+5ssw41072100 0.0 1019236
05:00+5ssw4973100 0.0 1018208
08:00+5ssw41073100 0.0 1017238
11:00+8sw51061100 0.0 1018410
14:00+10sw5957100 0.0 1017583
17:00+9sw51166100 0.0 1016384
20:00+9sw61273100 0.1 1016601
27 october, wed
wed2723:00+9wsw61291100 2.1 1016721
02:00+8wsw5129468 2.1 1017505
05:00+8wsw5119195 0.0 1018624
08:00+6sw4109675 0.0 1019278
11:00+10sw51182100 0.0 1019446
14:00+10sw61283100 0.1 1018619
17:00+10sw61386100 0.1 1018588
20:00+11sw61388100 0.1 1017619
28 october, thu
thu2823:00+10sw61590100 0.0 1018657
02:00+11wsw61487100 0.0 1018772
05:00+12wsw61487100 0.0 1018761
08:00+12wsw61384100 0.1 1020691
11:00+13wsw5107959 0.0 1021696
14:00+15wsw587087 0.0 1021852
17:00+12wsw348810 0.0 102253
20:00+10sw359216 0.0 102377
29 october, fri
fri2923:00+10ssw3593100 0.0 102380
02:00+9ssw37935 0.0 1023116
05:00+8s38935 0.0 1023150
08:00+8sse411915 0.0 1022216
11:00+13s613645 0.0 1022455
14:00+15s613555 0.0 1021646
17:00+13s5126153 0.0 1020398
20:00+12s6156536 0.0 1019436
30 october, sat
sat3023:00+11s5146857 0.0 1019372
02:00+9s512705 0.0 1018277
05:00+8s4117474 0.0 1018234
08:00+7s4137269 0.0 1018261
11:00+12ssw6135250 0.0 1018564
14:00+14ssw6114838 0.0 1018753
17:00+10ssw4961100 0.0 1018207
20:00+9s41068100 0.0 1019177